Location: Moorefield
(40.6897°N, 100.3996°W)
Time: 23:07:54
(UTC+00:00)

ISS - Visible Passes

Search period start: 25 August 2019 00:00
Search period end: 04 September 2019 00:00
Orbit: 410 x 421 km, 51.6° (Epoch: 26 August)

Date Brightness Start Highest point End Pass type
(mag) Time Alt. Az. Time Alt. Az. Time Alt. Az.
26 Aug -2.4 11:21:16 10° SSW 11:24:20 35° SE 11:27:25 10° ENE visible
27 Aug -1.6 10:33:58 14° S 10:35:40 20° SE 10:38:12 10° E visible
28 Aug -0.9 09:47:24 11° ESE 09:47:24 11° ESE 09:48:11 10° ESE visible
28 Aug -3.8 11:20:17 12° WSW 11:23:20 79° NW 11:26:41 10° NE visible
29 Aug -3.4 10:33:38 40° SSW 10:34:32 57° SE 10:37:50 10° ENE visible
30 Aug -1.7 09:46:54 25° E 09:46:54 25° E 09:48:48 10° ENE visible
30 Aug -2.6 11:19:47 12° W 11:22:30 33° NNW 11:25:34 10° NE visible
31 Aug -3.4 10:32:59 44° WNW 10:33:34 51° NNW 10:36:51 10° NE visible
01 Sep -1.9 09:46:08 31° NE 09:46:08 31° NE 09:48:02 10° NE visible
01 Sep -1.7 11:19:19 10° WNW 11:21:48 19° NNW 11:24:18 10° NNE visible
02 Sep -2.2 10:32:06 23° NW 10:32:45 25° NNW 10:35:35 10° NE visible
03 Sep -1.5 09:45:09 24° NNE 09:45:09 24° NNE 09:46:51 10° NE visible
03 Sep -1.2 11:19:21 10° NW 11:21:12 14° N 11:23:03 10° NNE visible
